Surface/Precipitation History
11/24/2014 20:58  to  11/25/2014 20:58
Change End Date:
Date/Time
(MST)
Sf
Temp Chem Water Layer Surface Precipitation
Sf Sub Frz Factor Pct Depth IcePct Cond Salin Type Intens Accum Rate
11/25/2014 20:41 Ice Watch 29.8F 32F - 95 - - - 0 mhos 41 None None - -
11/25/2014 20:34 Ice Watch 29.8F 32F - 95 - - - 0 mhos 44 None None - -
11/25/2014 20:24 Ice Watch 29.8F 32F - 95 - - - 0 mhos 47 None None - -
11/25/2014 20:14 Ice Watch 30.2F 32F - 95 - - - 1 mhos 59 None None - -
11/25/2014 20:11 Ice Watch 30.4F 32F - 95 - - - 1 mhos 100 None None - -
11/25/2014 20:04 Ice Watch 30.4F 32F - 95 - - - 1 mhos 104 None None - -
11/25/2014 19:54 Ice Watch 30.4F 32F - 95 - - - 1 mhos 103 None None - -
11/25/2014 19:44 Ice Watch 30.4F 32F - 95 - - - 1 mhos 116 None None - -
11/25/2014 19:33 Ice Watch 30.4F 32F - 95 - - - 1 mhos 115 None None - -
11/25/2014 19:23 Ice Watch 30.2F 32F - 95 - - - 1 mhos 168 None None - -
11/25/2014 19:13 Ice Watch 30.2F 32F - 95 - - - 1 mhos 169 None None - -
11/25/2014 19:10 Ice Watch 30.2F 32F - 95 - - - 1 mhos 169 None None - -
11/25/2014 19:03 Ice Watch 30.2F 32F - 95 - - - 1 mhos 130 None None - -
11/25/2014 18:53 Ice Watch 30.2F 32F - 95 - - - 1 mhos 138 None None - -
11/25/2014 18:43 Ice Watch 30.4F 32F - 95 - - - 1 mhos 139 None None - -
Date/Time
(MST)
Sf
Temp Chem Water Layer Surface Precipitation
Sf Sub Frz Factor Pct Depth IcePct Cond Salin Type Intens Accum Rate
11/25/2014 18:41 Ice Watch 30.4F 32F - 95 - - - 1 mhos 142 None None - -
11/25/2014 18:33 Ice Watch 30.6F 32F - 95 - - - 1 mhos 142 None None - -
11/25/2014 18:23 Ice Watch 30.6F 32F - 95 - - - 1 mhos 151 None None - -
11/25/2014 18:13 Ice Watch 30.7F 32F - 95 - - - 1 mhos 98 None None - -
11/25/2014 18:11 Ice Watch 30.9F 32F - 95 - - - 1 mhos 100 None None - -
11/25/2014 18:03 Ice Watch 31.5F 32F - 95 - - - 1 mhos 130 None None - -
11/25/2014 17:53 Ice Watch 31.8F 32F - 95 - - - 1 mhos 124 None None - -
11/25/2014 17:43 Ice Watch 31.8F 32F - 95 - - - 1 mhos 124 None None - -
11/25/2014 17:41 Ice Watch 31.8F 32F - 95 - - - 1 mhos 130 None None - -
11/25/2014 17:33 Ice Watch 32.0F 32F - 95 - - - 1 mhos 119 None None - -
11/25/2014 17:23 Ice Watch 32.0F 32F - 95 - - - 1 mhos 149 None None - -
11/25/2014 17:18 Ice Watch 31.8F 32F - 95 - - - 1 mhos 144 None None - -
11/25/2014 17:13 Ice Watch 31.8F 32F - 95 - - - 1 mhos 122 None None - -
11/25/2014 17:03 Ice Watch 32.0F 32F - 95 - - - 0 mhos 36 None None - -
11/25/2014 17:02 Ice Watch 32.0F 32F - 95 - - - 0 mhos 37 None None - -
Date/Time
(MST)
Sf
Temp Chem Water Layer Surface Precipitation
Sf Sub Frz Factor Pct Depth IcePct Cond Salin Type Intens Accum Rate
11/25/2014 16:53 Ice Watch 32.0F 32F - 95 - - - 0 mhos 40 None None - -
11/25/2014 16:47 Ice Watch 32.0F 32F - 95 - - - 2 mhos 200 None None - -
11/25/2014 16:43 Trace Moisture 32.2F 32F - 95 - - - 1 mhos 66 None None - -
11/25/2014 16:33 Trace Moisture 32.2F 32F - 95 - - - 2 mhos 205 None None - -
11/25/2014 16:32 Trace Moisture 32.2F 32F - 95 - - - 2 mhos 205 None None - -
11/25/2014 16:22 Trace Moisture 32.2F 32F - 95 - - - 1 mhos 74 None None - -
11/25/2014 16:16 Trace Moisture 32.5F 32F - 65 - - - 0 mhos 26 None None - -
11/25/2014 16:12 Trace Moisture 32.4F 32F - 35 - - - 0 mhos 17 None None - -
11/25/2014 16:02 Trace Moisture 32.5F 32F - 15 - - - 0 mhos 12 None None - -
11/25/2014 16:01 Trace Moisture 32.5F 32F - 10 - - - 0 mhos 11 None None - -
11/25/2014 15:52 Trace Moisture 32.5F 33F - 60 - - - 0 mhos 15 None None - -
11/25/2014 15:44 Trace Moisture 32.5F 33F - 20 - - - 0 mhos 13 None None - -
11/25/2014 15:42 Trace Moisture 32.5F 33F - 10 - - - 0 mhos 11 None None - -
11/25/2014 15:32 Trace Moisture 32.7F 33F - 45 - - - 0 mhos 14 None None - -
11/25/2014 15:31 Trace Moisture 32.7F 33F - 50 - - - 0 mhos 11 None None - -
Date/Time
(MST)
Sf
Temp Chem Water Layer Surface Precipitation
Sf Sub Frz Factor Pct Depth IcePct Cond Salin Type Intens Accum Rate
11/25/2014 15:22 Trace Moisture 32.9F 33F - 25 - - - 0 mhos 15 None None - -
11/25/2014 15:15 Trace Moisture 32.9F 33F - 15 - - - 0 mhos 15 None None - -
11/25/2014 15:12 Trace Moisture 33.1F 33F - 45 - - - 0 mhos 16 None None - -
11/25/2014 15:02 Trace Moisture 33.4F 34F - 40 - - - 0 mhos 19 None None - -
11/25/2014 15:01 Trace Moisture 33.4F 34F - 40 - - - 0 mhos 20 None None - -
11/25/2014 14:52 Trace Moisture 36.7F 34F - 10 - - - 0 mhos 36 None None - -
11/25/2014 14:50 Trace Moisture 37.4F 34F - 35 - - - 0 mhos 35 None None - -
11/25/2014 14:42 Trace Moisture 37.6F 34F - 20 - - - 0 mhos 41 None None - -
11/25/2014 14:32 Trace Moisture 37.4F 34F - 50 - - - 0 mhos 46 None None - -
11/25/2014 14:31 Trace Moisture 37.6F 34F - 50 - - - 0 mhos 26 None None - -
11/25/2014 14:22 Trace Moisture 37.2F 34F - 55 - - - 1 mhos 54 None None - -
11/25/2014 14:15 Trace Moisture 37.0F 34F - 80 - - - 1 mhos 61 None None - -
11/25/2014 14:12 Trace Moisture 37.0F 34F - 75 - - - 1 mhos 65 None None - -
11/25/2014 14:02 Trace Moisture 37.2F 34F - 80 - - - 1 mhos 88 None None - -
11/25/2014 14:02 Trace Moisture 37.2F 34F - 80 - - - 1 mhos 88 None None - -
Date/Time
(MST)
Sf
Temp Chem Water Layer Surface Precipitation
Sf Sub Frz Factor Pct Depth IcePct Cond Salin Type Intens Accum Rate
11/25/2014 13:52 Trace Moisture 37.2F 34F - 80 - - - 1 mhos 125 None None - -
11/25/2014 13:47 Trace Moisture 37.0F 34F - 95 - - - 1 mhos 128 None None - -
11/25/2014 13:42 Trace Moisture 36.9F 34F - 95 - - - 2 mhos 147 None None - -
11/25/2014 13:32 Trace Moisture 37.2F 34F - 80 - - - 1 mhos 125 None None - -
11/25/2014 13:32 Trace Moisture 37.2F 34F - 80 - - - 1 mhos 125 None None - -
11/25/2014 13:22 Trace Moisture 37.2F 34F - 95 - - - 2 mhos 168 None None - -
11/25/2014 13:12 Trace Moisture 37.2F 34F - 50 - - - 1 mhos 137 None None - -
11/25/2014 13:10 Trace Moisture 37.4F 34F - 95 - - - 2 mhos 196 None None - -
11/25/2014 13:01 Trace Moisture 37.6F 34F - 85 - - - 2 mhos 208 None None - -
11/25/2014 12:51 Trace Moisture 37.8F 33F - 95 - - - 2 mhos 211 None None - -
11/25/2014 12:41 Trace Moisture 38.1F 33F - 95 - - - 2 mhos 213 None None - -
11/25/2014 12:35 Trace Moisture 38.1F 33F - 95 - - - 2 mhos 188 None None - -
11/25/2014 12:31 Trace Moisture 38.1F 33F - 95 - - - 2 mhos 206 None None - -
11/25/2014 12:21 Trace Moisture 37.4F 33F - 95 - - - 3 mhos 235 None None - -
11/25/2014 12:14 Trace Moisture 37.4F 32F - 95 - - - 2 mhos 214 None None - -
Date/Time
(MST)
Sf
Temp Chem Water Layer Surface Precipitation
Sf Sub Frz Factor Pct Depth IcePct Cond Salin Type Intens Accum Rate
11/25/2014 12:11 Trace Moisture 37.2F 32F - 95 - - - 2 mhos 212 None None - -
11/25/2014 12:02 Trace Moisture 37.0F 32F - 95 - - - 3 mhos 236 None None - -
11/25/2014 12:01 Trace Moisture 37.0F 32F - 75 - - - 3 mhos 239 None None - -
11/25/2014 11:51 Trace Moisture 36.3F 32F - 95 - - - 2 mhos 205 None None - -
11/25/2014 11:41 Trace Moisture 36.5F 32F - 95 - - - 1 mhos 82 None None - -
11/25/2014 11:37 Trace Moisture 35.8F 32F - 95 - - - 2 mhos 150 None None - -
11/25/2014 11:31 Trace Moisture 35.6F 32F - 95 - - - 3 mhos 326 None None - -
11/25/2014 11:21 Trace Moisture 35.2F 32F - 95 - - - 3 mhos 281 None None - -
11/25/2014 11:20 Trace Moisture 35.2F 32F - 95 - - - 3 mhos 281 None None - -
11/25/2014 11:11 Trace Moisture 34.5F 31F - 95 - - - 6 mhos 599 None None - -
11/25/2014 11:02 Trace Moisture 33.4F 31F - 95 - - - 8 mhos 831 None None - -
11/25/2014 11:01 Trace Moisture 33.4F 31F - 95 - - - 8 mhos 837 None None - -
11/25/2014 10:51 Trace Moisture 32.9F 31F - 95 - - - 7 mhos 687 None None - -
11/25/2014 10:42 Trace Moisture 32.5F 31F - 95 - - - 8 mhos 861 None None - -
11/25/2014 10:41 Trace Moisture 32.2F 31F - 95 - - - 7 mhos 746 None None - -
Date/Time
(MST)
Sf
Temp Chem Water Layer Surface Precipitation
Sf Sub Frz Factor Pct Depth IcePct Cond Salin Type Intens Accum Rate
11/25/2014 10:32 Trace Moisture 32.4F 31F - 95 - - - 5 mhos 532 None None - -
11/25/2014 10:31 Trace Moisture 32.4F 31F - 95 - - - 5 mhos 496 None None - -
11/25/2014 10:21 Ice Watch 32.0F 31F - 95 - - - 5 mhos 529 None None - -
11/25/2014 10:17 Ice Watch 31.8F 31F - 95 - - - 6 mhos 588 None None - -
11/25/2014 10:11 Ice Watch 31.8F 31F - 95 - - - 3 mhos 254 None None - -
11/25/2014 10:03 Ice Watch 31.5F 31F - 95 - - - 0 mhos 5 None None - -
11/25/2014 10:01 Ice Watch 31.5F 31F - 95 - - - 0 mhos 4 None None - -
11/25/2014 09:51 Ice Watch 31.3F 31F - 45 - - - 0 mhos 4 None None - -
11/25/2014 09:48 Ice Watch 31.1F 31F - 25 - - - 0 mhos 4 None None - -
11/25/2014 09:40 Ice Watch 31.1F 30F - 10 - - - 0 mhos 4 None None - -
11/25/2014 09:33 Ice Watch 31.1F 30F - 10 - - - 0 mhos 4 None None - -
11/25/2014 09:30 Ice Watch 30.9F 30F - 10 - - - 0 mhos 4 None None - -
11/25/2014 09:20 Ice Watch 30.6F 30F - 10 - - - 0 mhos 4 None None - -
11/25/2014 09:19 Ice Watch 30.6F 30F - 10 - - - 0 mhos 4 None None - -
11/25/2014 09:10 Ice Watch 30.4F 30F - 10 - - - 0 mhos 4 None None - -
Date/Time
(MST)
Sf
Temp Chem Water Layer Surface Precipitation
Sf Sub Frz Factor Pct Depth IcePct Cond Salin Type Intens Accum Rate
11/25/2014 09:02 Ice Watch 30.0F 30F - 10 - - - 0 mhos 5 None None - -
11/25/2014 09:00 Ice Watch 30.0F 30F - 10 - - - 0 mhos 5 None None - -
11/25/2014 08:50 Ice Watch 29.8F 30F - 10 - - - 0 mhos 5 None None - -
11/25/2014 08:50 Ice Watch 29.8F 30F - 10 - - - 0 mhos 5 None None - -
11/25/2014 08:40 Ice Watch 29.5F 30F - 5 - - - 0 mhos 5 None None - -
11/25/2014 08:33 Ice Watch 29.5F 30F - 5 - - - 0 mhos 4 None None - -
11/25/2014 08:30 Ice Watch 29.3F 30F - 5 - - - 0 mhos 4 None None - -
11/25/2014 08:20 Ice Watch 29.1F 30F - 5 - - - 0 mhos 4 None None - -
11/25/2014 08:20 Ice Watch 29.1F 29F - 5 - - - 0 mhos 4 None None - -
11/25/2014 08:10 Ice Watch 28.9F 29F - 5 - - - 0 mhos 4 None None - -
11/25/2014 08:01 Ice Watch 28.8F 29F - 5 - - - 0 mhos 4 None None - -
11/25/2014 08:00 Ice Watch 28.8F 29F - 5 - - - 0 mhos 4 None None - -
11/25/2014 07:51 Ice Watch 28.8F 29F - 5 - - - 0 mhos 4 None None - -
11/25/2014 07:50 Ice Watch 28.8F 29F - 5 - - - 0 mhos 4 None None - -
11/25/2014 07:40 Ice Watch 28.6F 29F - 5 - - - 0 mhos 4 None None - -
Date/Time
(MST)
Sf
Temp Chem Water Layer Surface Precipitation
Sf Sub Frz Factor Pct Depth IcePct Cond Salin Type Intens Accum Rate
11/25/2014 07:31 Ice Watch 28.6F 29F - 5 - - - 0 mhos 4 None None - -
11/25/2014 07:30 Ice Watch 28.6F 29F - 5 - - - 0 mhos 4 None None - -
11/25/2014 07:20 Ice Watch 28.4F 29F - 5 - - - 0 mhos 4 None None - -
11/25/2014 07:11 Ice Watch 28.4F 29F - 5 - - - 0 mhos 3 None None - -
11/25/2014 07:10 Ice Watch 28.4F 29F - 5 - - - 0 mhos 3 None None - -
11/25/2014 07:00 Ice Watch 28.4F 29F - 5 - - - 0 mhos 3 None None - -
11/25/2014 06:50 Ice Watch 28.6F 29F - 5 - - - 0 mhos 3 None None - -
11/25/2014 06:41 Ice Watch 28.6F 29F - 5 - - - 0 mhos 3 None None - -
11/25/2014 06:40 Ice Watch 28.6F 29F - 5 - - - 0 mhos 3 None None - -
11/25/2014 06:30 Ice Watch 28.8F 29F - 5 - - - 0 mhos 2 None None - -
11/25/2014 06:19 Ice Watch 28.8F 29F - 5 - - - 0 mhos 2 None None - -
11/25/2014 06:11 Ice Watch 28.8F 29F - 5 - - - 0 mhos 2 None None - -
11/25/2014 06:09 Ice Watch 28.8F 29F - 5 - - - 0 mhos 2 None None - -
11/25/2014 05:59 Ice Watch 28.6F 29F - 5 - - - 0 mhos 2 None None - -
11/25/2014 05:49 Ice Watch 28.4F 29F - 5 - - - 0 mhos 2 None None - -
Date/Time
(MST)
Sf
Temp Chem Water Layer Surface Precipitation
Sf Sub Frz Factor Pct Depth IcePct Cond Salin Type Intens Accum Rate
11/25/2014 05:40 Ice Watch 28.4F 29F - 5 - - - 0 mhos 2 None None - -
11/25/2014 05:39 Ice Watch 28.4F 29F - 5 - - - 0 mhos 2 None None - -
11/25/2014 05:29 Ice Watch 28.2F 29F - 5 - - - 0 mhos 2 None None - -
11/25/2014 05:19 Ice Watch 27.9F 29F - 5 - - - 0 mhos 2 None None - -
11/25/2014 05:12 Ice Watch 27.9F 29F - 5 - - - 0 mhos 2 None None - -
11/25/2014 05:09 Ice Watch 27.9F 29F - 5 - - - 0 mhos 2 None None - -
11/25/2014 04:59 Ice Watch 27.7F 29F - 5 - - - 0 mhos 2 None None - -
11/25/2014 04:49 Ice Watch 27.7F 29F - 5 - - - 0 mhos 3 None None - -
11/25/2014 04:41 Ice Watch 27.7F 29F - 5 - - - 0 mhos 3 None None - -
11/25/2014 04:39 Ice Watch 27.9F 29F - 5 - - - 0 mhos 3 None None - -
11/25/2014 04:29 Ice Watch 27.9F 29F - 5 - - - 0 mhos 3 None None - -
11/25/2014 04:19 Ice Watch 28.0F 29F - 5 - - - 0 mhos 3 None None - -
11/25/2014 04:11 Ice Watch 27.7F 29F - 5 - - - 0 mhos 2 None None - -
11/25/2014 04:09 Ice Watch 27.7F 29F - 5 - - - 0 mhos 2 None None - -
11/25/2014 03:59 Ice Watch 27.9F 29F - 5 - - - 0 mhos 2 None None - -
Date/Time
(MST)
Sf
Temp Chem Water Layer Surface Precipitation
Sf Sub Frz Factor Pct Depth IcePct Cond Salin Type Intens Accum Rate
11/25/2014 03:49 Ice Watch 28.0F 30F - 5 - - - 0 mhos 3 None None - -
11/25/2014 03:40 Ice Watch 28.4F 30F - 5 - - - 0 mhos 3 None None - -
11/25/2014 03:39 Ice Watch 28.2F 30F - 5 - - - 0 mhos 3 None None - -
11/25/2014 03:29 Ice Watch 28.2F 30F - 5 - - - 0 mhos 3 None None - -
11/25/2014 03:19 Ice Watch 28.4F 30F - 5 - - - 0 mhos 3 None None - -
11/25/2014 03:11 Ice Watch 28.4F 30F - 5 - - - 0 mhos 3 None None - -
11/25/2014 03:08 Ice Watch 28.4F 30F - 5 - - - 0 mhos 3 None None - -
11/25/2014 02:58 Ice Watch 28.4F 30F - 5 - - - 0 mhos 3 None None - -
11/25/2014 02:48 Ice Watch 28.2F 30F - 5 - - - 0 mhos 2 None None - -
11/25/2014 02:41 Ice Watch 28.0F 30F - 5 - - - 0 mhos 2 None None - -
11/25/2014 02:38 Ice Watch 28.0F 30F - 5 - - - 0 mhos 2 None None - -
11/25/2014 02:28 Ice Watch 28.2F 30F - 5 - - - 0 mhos 2 None None - -
11/25/2014 02:20 Ice Watch 28.2F 30F - 5 - - - 0 mhos 2 None None - -
11/25/2014 02:18 Ice Watch 28.2F 30F - 5 - - - 0 mhos 2 None None - -
11/25/2014 02:08 Ice Watch 28.4F 30F - 5 - - - 0 mhos 2 None None - -
Date/Time
(MST)
Sf
Temp Chem Water Layer Surface Precipitation
Sf Sub Frz Factor Pct Depth IcePct Cond Salin Type Intens Accum Rate
11/25/2014 01:58 Ice Watch 28.6F 30F - 5 - - - 0 mhos 2 None None - -
11/25/2014 01:48 Ice Watch 28.8F 30F - 5 - - - 0 mhos 2 None None - -
11/25/2014 01:42 Ice Watch 28.8F 30F - 5 - - - 0 mhos 2 None None - -
11/25/2014 01:38 Ice Watch 28.8F 31F - 5 - - - 0 mhos 2 None None - -
11/25/2014 01:28 Ice Watch 28.8F 31F - 5 - - - 0 mhos 1 None None - -
11/25/2014 01:18 Ice Watch 29.3F 31F - 5 - - - 0 mhos 1 None None - -
11/25/2014 01:11 Dry 29.8F 31F - - - - - 0 mhos 0 None None - -
11/25/2014 01:08 Dry 29.8F 31F - - - - - 0 mhos 0 None None - -
11/25/2014 00:58 Dry 29.8F 31F - - - - - 0 mhos 0 None None - -
11/25/2014 00:48 Dry 29.7F 31F - - - - - 0 mhos 0 None None - -
11/25/2014 00:41 Dry 29.8F 31F - - - - - 0 mhos 0 None None - -
11/25/2014 00:38 Dry 29.7F 31F - - - - - 0 mhos 0 None None - -
11/25/2014 00:28 Dry 29.7F 31F - - - - - 0 mhos 0 None None - -
11/25/2014 00:19 Dry 29.5F 31F - - - - - 0 mhos 0 None None - -
11/25/2014 00:18 Dry 29.5F 30F - - - - - 0 mhos 0 None None - -
Date/Time
(MST)
Sf
Temp Chem Water Layer Surface Precipitation
Sf Sub Frz Factor Pct Depth IcePct Cond Salin Type Intens Accum Rate
11/25/2014 00:08 Dry 29.5F 30F - - - - - 0 mhos 0 None None - -
11/24/2014 23:57 Dry 29.5F 30F - - - - - 0 mhos 0 None None - -
11/24/2014 23:47 Dry 29.1F 30F - - - - - 0 mhos 0 None None - -
11/24/2014 23:37 Dry 28.8F 30F - - - - - 0 mhos 0 None None - -
11/24/2014 23:27 Dry 28.4F 30F - - - - - 0 mhos 0 None None - -
11/24/2014 23:17 Dry 28.2F 30F - - - - - 0 mhos 0 None None - -
11/24/2014 23:07 Dry 28.4F 31F - - - - - 0 mhos 0 None None - -
11/24/2014 22:57 Dry 28.6F 31F - - - - - 0 mhos 0 None None - -
11/24/2014 22:47 Dry 28.6F 31F - - - - - 0 mhos 0 None None - -
11/24/2014 22:40 Dry 28.6F 31F - - - - - 0 mhos 0 None None - -
11/24/2014 22:37 Dry 28.8F 31F - - - - - 0 mhos 0 None None - -
11/24/2014 22:27 Dry 28.8F 31F - - - - - 0 mhos 0 None None - -
11/24/2014 22:17 Dry 28.9F 31F - - - - - 0 mhos 0 None None - -
11/24/2014 22:11 Dry 29.1F 31F - - - - - 0 mhos 0 None None - -
11/24/2014 22:07 Dry 29.1F 31F - - - - - 0 mhos 0 None None - -
Date/Time
(MST)
Sf
Temp Chem Water Layer Surface Precipitation
Sf Sub Frz Factor Pct Depth IcePct Cond Salin Type Intens Accum Rate
11/24/2014 21:57 Dry 29.3F 31F - - - - - 0 mhos 0 None None - -
11/24/2014 21:47 Dry 29.5F 31F - - - - - 0 mhos 0 None None - -
11/24/2014 21:41 Dry 29.5F 31F - - - - - 0 mhos 0 None None - -
11/24/2014 21:37 Dry 29.7F 31F - - - - - 0 mhos 0 None None - -
11/24/2014 21:27 Dry 29.5F 31F - - - - - 0 mhos 0 None None - -
11/24/2014 21:17 Dry 29.8F 31F - - - - - 0 mhos 0 None None - -
11/24/2014 21:11 Dry 29.8F 31F - - - - - 0 mhos 0 None None - -
11/24/2014 21:07 Dry 29.8F 31F - - - - - 0 mhos 0 None None - -
Change End Date:
Copyright © 1998-2005 Surface Systems, Inc.
All Rights Reserved
Send comments about the data to:
SCAN Web ® is a registered trademark of Surface Systems, Inc.
SCAN Web Version 5.6